[[{"header":{"parameterUnit":"m.s-1","parameterCategory":1,"la1":30.2991,"la2":30.254,"lo1":-89.0895,"lo2":-89.0444,"dy":0.0017,"dx":0.0017,"nx":28,"ny":28,"refTime":"2023-04-26T21:00:00:Z","depth":0,"parameterNumber":2,"parameterNumberName":"U-component_of_WINDS"},"data":[0,0,0,0,0,0,0,0,0,0,0,0,0,0,0,0,0,0,0,0,0,0,0,0,0,0,0,0,0,0,0,0,0,0,0,0,0,0,0,0,0,0,0,0,0,0,0,0,0,0,0,0,0,0,0,0,0,0,-2.5711,-2.5712,0,-2.5783,-2.5784,-2.5785,-2.582,-2.582,-2.582,-2.582,-2.5893,-2.5895,-2.5897,0,0,0,0,0,0,0,0,0,0,0,0,0,-2.5605,-2.5607,-2.5711,-2.5712,-2.5713,-2.5783,-2.5784,-2.5785,-2.582,-2.582,-2.582,-2.582,-2.5892,-2.5894,-2.5897,0,0,0,0,0,0,0,0,0,0,0,0,0,-2.5661,-2.5607,-2.5711,-2.5739,-2.5742,-2.5783,-2.5784,-2.5785,-2.582,-2.582,-2.582,-2.582,-2.5891,-2.5894,-2.5897,-2.5915,0,0,-2.5906,-2.5907,0,0,0,0,0,0,0,0,-2.5658,-2.5665,-2.5734,-2.5737,-2.5741,-2.5792,-2.5773,-2.5829,-2.582,-2.579,-2.582,-2.582,-2.5859,-2.5865,-2.5878,-2.5919,-2.5922,-2.5906,-2.5908,-2.5909,-2.591,0,0,0,0,0,0,0,-2.5654,-2.5662,-2.574,-2.5735,-2.5739,-2.5748,-2.5756,-2.5784,-2.5824,-2.5793,-2.5796,-2.5804,-2.5861,-2.5875,-2.588,-2.5923,-2.5906,-2.5909,-2.5911,-2.5912,-2.5983,-2.5983,0,0,0,0,0,0,-2.5646,-2.5659,-2.5737,-2.5742,-2.5699,-2.575,-2.5759,-2.5776,-2.5824,-2.5831,-2.5804,-2.5805,-2.587,-2.5877,-2.5883,-2.5908,-2.5909,-2.5912,-2.5914,-2.5982,-2.5983,-2.5983,0,0,0,0,0,0,-2.5643,-2.5652,-2.5734,-2.5701,-2.5712,-2.5752,-2.5771,-2.5777,-2.5792,-2.5832,-2.5839,-2.5811,-2.5871,-2.5879,-2.5907,-2.5911,-2.5913,-2.5916,-2.5982,-2.5982,-2.5983,-2.5957,0,0,0,0,0,0,-2.564,-2.5651,-2.5658,-2.5701,-2.5714,-2.5757,-2.5771,-2.5779,-2.5797,-2.5799,-2.5841,-2.5847,-2.5871,-2.5903,-2.591,-2.5915,-2.5918,-2.5982,-2.5982,-2.5983,-2.5958,-2.5957,-2.5956,0,0,0,0,0,-2.5636,-2.5648,-2.5659,-2.5668,-2.5724,-2.5757,-2.5765,-2.5792,-2.5797,-2.5804,-2.583,-2.5846,-2.5909,-2.5905,-2.5914,-2.592,-2.5982,-2.5982,-2.5983,-2.5959,-2.5957,-2.5956,0,0,0,0,0,0,-2.5605,-2.5654,-2.5666,-2.5692,-2.572,-2.5763,-2.5774,-2.5789,-2.5817,-2.5818,-2.5851,-2.586,-2.5885,-2.5905,-2.59,-2.594,-2.5947,-2.5949,-2.5926,-2.5925,-2.5924,-2.5918,-2.5921,0,0,0,0,0,-2.5601,-2.5624,-2.5666,-2.5685,-2.5699,-2.5734,-2.5749,-2.5768,-2.5798,-2.581,-2.5839,-2.5867,-2.5894,-2.591,-2.5937,-2.5961,-2.5971,-2.597,-2.5968,-2.5967,-2.5969,-2.5984,-2.5984,-2.5984,-2.5984,-2.5984,0,0,-2.5593,-2.5623,-2.5636,-2.568,-2.5704,-2.5727,-2.5743,-2.5767,-2.5785,-2.5814,-2.5843,-2.5864,-2.5899,-2.5925,-2.5938,-2.5943,-2.5971,-2.5968,-2.5966,-2.5968,-2.5984,-2.5984,-2.5984,-2.5984,-2.5984,-2.5984,0,0,-2.5591,-2.5616,-2.5635,-2.5658,-2.5695,-2.5718,-2.5722,-2.5763,-2.5779,-2.5808,-2.583,-2.5852,-2.5897,-2.5921,-2.5939,-2.5946,-2.5962,-2.5954,-2.5947,-2.5962,-2.5962,-2.5962,-2.5965,-2.5966,-2.5955,-2.5955,-2.5955,0,-2.5577,-2.5613,-2.5642,-2.5665,-2.5684,-2.5712,-2.5732,-2.5753,-2.5796,-2.5808,-2.5813,-2.587,-2.5895,-2.5928,-2.593,-2.5944,-2.595,-2.5949,-2.596,-2.596,-2.5961,-2.5964,-2.5965,-2.5954,-2.5954,-2.5954,-2.5955,0,-2.5594,-2.5619,-2.563,-2.5671,-2.5691,-2.5712,-2.5745,-2.5762,-2.5779,-2.5802,-2.5832,-2.5863,-2.5897,-2.5906,-2.5923,-2.5941,-2.5943,-2.5953,-2.5961,-2.5959,-2.5963,-2.5964,-2.5952,-2.5953,-2.5953,-2.5954,0,0,-2.5574,-2.5631,-2.5635,-2.5654,-2.5696,-2.5716,-2.5739,-2.5772,-2.5786,-2.5815,-2.5835,-2.5873,-2.5882,-2.5903,-2.5923,-2.5935,-2.594,-2.5944,-2.5945,-2.5942,-2.5963,-2.5956,-2.5957,-2.5951,-2.5951,-2.5952,-2.5961,0,-2.5578,-2.5619,-2.5647,-2.5678,-2.5701,-2.5728,-2.5748,-2.5776,-2.5799,-2.5822,-2.5847,-2.5873,-2.5884,-2.5896,-2.591,-2.5937,-2.5945,-2.5936,-2.597,-2.5971,-2.5961,-2.5959,-2.595,-2.5957,-2.5962,-2.5963,-2.5963,0,-2.5588,-2.5616,-2.5649,-2.569,-2.5701,-2.5718,-2.5751,-2.5773,-2.5806,-2.5821,-2.5844,-2.5865,-2.589,-2.5896,-2.5932,-2.5925,-2.5941,-2.5956,-2.5957,-2.5961,-2.5967,-2.5963,-2.596,-2.5961,-2.5965,-2.5965,-2.5965,0,-2.557,-2.5616,-2.5643,-2.5658,-2.5706,-2.5717,-2.5738,-2.577,-2.5789,-2.5818,-2.583,-2.5862,-2.5879,-2.5903,-2.5932,-2.5933,-2.5965,-2.5973,-2.5979,-2.5978,-2.5984,-2.5983,-2.5984,-2.5994,-2.5994,-2.5994,-2.5994,0,-2.5571,-2.5591,-2.5635,-2.5651,-2.5674,-2.5706,-2.5727,-2.575,-2.5779,-2.58,-2.5826,-2.5845,-2.5882,-2.5906,-2.5929,-2.5955,-2.5963,-2.5976,-2.5982,-2.5974,-2.5972,-2.5985,-2.5985,-2.5994,-2.5994,-2.5994,-2.5994,0,-2.5555,-2.5586,-2.5616,-2.5659,-2.567,-2.5685,-2.5722,-2.5739,-2.5762,-2.5789,-2.5797,-2.5835,-2.5865,-2.5896,-2.5936,-2.5951,-2.5977,-2.5985,-2.5966,-2.5969,-2.5974,-2.5973,-2.5982,-2.5985,-2.5993,-2.5993,-2.5992,0,-2.5554,-2.557,-2.5614,-2.5631,-2.565,-2.5676,-2.5695,-2.5727,-2.5746,-2.5785,-2.5797,-2.5829,-2.5856,-2.5902,-2.5933,-2.5965,-2.5974,-2.5975,-2.5979,-2.597,-2.5974,-2.5973,-2.5975,-2.5973,-2.5973,-2.5973,-2.5973,0,-2.555,-2.5564,-2.559,-2.5622,-2.5645,-2.5671,-2.5699,-2.5711,-2.5748,-2.5768,-2.5799,-2.582,-2.5862,-2.5893,-2.5928,-2.595,-2.5968,-2.5972,-2.5975,-2.5967,-2.5955,-2.5962,-2.5963,-2.5971,-2.5971,-2.5971,-2.5972,-2.5972,-2.5541,-2.5557,-2.5591,-2.5619,-2.5644,-2.5669,-2.5687,-2.5714,-2.574,-2.5776,-2.5793,-2.5824,-2.5858,-2.5907,-2.5928,-2.5953,-2.5958,-2.5963,-2.5964,-2.5964,-2.5963,-2.5951,-2.596,-2.596,-2.596,-2.596,-2.596,0,-2.5538,-2.5561,-2.5588,-2.5626,-2.5649,-2.5664,-2.5695,-2.5713,-2.574,-2.577,-2.5796,-2.5832,-2.5863,-2.5897,-2.593,-2.5943,-2.5952,-2.5951,-2.595,-2.5955,-2.5956,-2.595,-2.5943,-2.5943,-2.5943,-2.5943,-2.5943,-2.5943,-2.5539,-2.5566,-2.5585,-2.5624,-2.5648,-2.5678,-2.5695,-2.5719,-2.5743,-2.5781,-2.5807,-2.5829,-2.586,-2.5896,-2.5925,-2.5934,-2.5946,-2.5942,-2.5953,-2.5953,-2.5955,-2.5956,-2.5951,-2.5944,-2.5944,-2.595,-2.595,-2.595]},{"header":{"parameterUnit":"m.s-1","parameterCategory":1,"la1":30.2991,"la2":30.254,"lo1":-89.0895,"lo2":-89.0444,"dy":0.0017,"dx":0.0017,"nx":28,"ny":28,"refTime":"2023-04-26T21:00:00:Z","depth":0,"parameterNumber":3,"parameterNumberName":"V-component_of_WINDS"},"data":[0,0,0,0,0,0,0,0,0,0,0,0,0,0,0,0,0,0,0,0,0,0,0,0,0,0,0,0,0,0,0,0,0,0,0,0,0,0,0,0,0,0,0,0,0,0,0,0,0,0,0,0,0,0,0,0,0,0,5.543,5.543,0,5.5429,5.5429,5.5429,5.5377,5.5375,5.5374,5.5372,5.5371,5.5372,5.5374,0,0,0,0,0,0,0,0,0,0,0,0,0,5.5387,5.5388,5.543,5.543,5.543,5.5429,5.5429,5.5429,5.5377,5.5375,5.5373,5.5372,5.5371,5.5372,5.5374,0,0,0,0,0,0,0,0,0,0,0,0,0,5.5398,5.5388,5.543,5.5404,5.5401,5.5429,5.5429,5.5429,5.5377,5.5375,5.5373,5.5371,5.537,5.5372,5.5374,5.5427,0,0,5.538,5.538,0,0,0,0,0,0,0,0,5.5397,5.54,5.5408,5.5406,5.5403,5.5401,5.5413,5.5428,5.5378,5.5386,5.5372,5.537,5.5383,5.5383,5.5388,5.5427,5.5426,5.538,5.5381,5.5382,5.5382,0,0,0,0,0,0,0,5.5397,5.5399,5.543,5.5408,5.5405,5.5392,5.5392,5.5416,5.5396,5.5385,5.5382,5.5382,5.5381,5.5386,5.5387,5.5426,5.538,5.5381,5.5383,5.5383,5.5511,5.5513,0,0,0,0,0,0,5.54,5.5399,5.543,5.543,5.5395,5.5395,5.5394,5.5404,5.5396,5.5392,5.5384,5.538,5.5384,5.5385,5.5387,5.545,5.5382,5.5383,5.5384,5.5509,5.5511,5.5514,0,0,0,0,0,0,5.5399,5.5403,5.543,5.5413,5.5416,5.5398,5.5409,5.5405,5.541,5.5395,5.5391,5.5393,5.5382,5.5384,5.5418,5.5449,5.5384,5.5386,5.5506,5.5509,5.5512,5.5574,0,0,0,0,0,0,5.5398,5.5403,5.5422,5.5414,5.5417,5.546,5.5411,5.5406,5.5413,5.5408,5.5402,5.5399,5.5381,5.5415,5.542,5.545,5.5387,5.5503,5.5507,5.5511,5.5569,5.5579,5.5588,0,0,0,0,0,5.5396,5.5439,5.5423,5.5427,5.5441,5.5462,5.5464,5.5442,5.5416,5.5436,5.5426,5.5399,5.5445,5.5419,5.5423,5.5455,5.5501,5.5506,5.5511,5.5565,5.5577,5.5588,0,0,0,0,0,0,5.545,5.5437,5.542,5.5461,5.5463,5.5453,5.5477,5.5455,5.5465,5.5459,5.5432,5.5431,5.5469,5.5465,5.5437,5.5507,5.5468,5.5474,5.5508,5.5519,5.5528,5.5529,5.5389,0,0,0,0,0,5.5467,5.5485,5.5473,5.5511,5.5513,5.5495,5.5503,5.5487,5.5488,5.5488,5.5481,5.5483,5.5498,5.5508,5.5521,5.5569,5.5568,5.5593,5.5602,5.561,5.5616,5.5642,5.5654,5.553,5.553,5.553,0,0,5.5502,5.5497,5.551,5.5522,5.5521,5.5541,5.5496,5.5519,5.5534,5.5492,5.5523,5.5518,5.5519,5.556,5.5578,5.5558,5.565,5.5616,5.5623,5.5624,5.5649,5.5661,5.5671,5.5534,5.5533,5.5533,0,0,5.5575,5.5573,5.5605,5.5606,5.5607,5.5595,5.5603,5.5597,5.5592,5.5623,5.5593,5.5611,5.5636,5.5639,5.5643,5.5721,5.5696,5.5725,5.5774,5.58,5.581,5.5818,5.5847,5.5858,5.5731,5.5731,5.5731,0,5.5618,5.5647,5.5624,5.565,5.5656,5.562,5.5653,5.5655,5.566,5.5666,5.5644,5.5677,5.5674,5.5717,5.5736,5.574,5.5749,5.5726,5.581,5.5819,5.5826,5.5853,5.5864,5.5735,5.5735,5.5734,5.5734,0,5.57,5.5721,5.5747,5.5754,5.5763,5.5792,5.5775,5.5787,5.5771,5.5762,5.5795,5.5791,5.5803,5.5812,5.5796,5.5853,5.5841,5.5815,5.5776,5.5842,5.5867,5.5877,5.574,5.5739,5.5738,5.5737,0,0,5.5806,5.5802,5.5812,5.5815,5.5814,5.583,5.5858,5.5871,5.5883,5.5888,5.5911,5.5935,5.5912,5.5918,5.5901,5.5924,5.5988,5.5896,5.5895,5.5914,5.6052,5.6072,5.6084,5.5972,5.5974,5.5975,5.6052,0,5.5878,5.5926,5.5908,5.5957,5.5977,5.5945,5.5969,5.5972,5.5965,5.5981,5.5973,5.5991,5.5958,5.5962,5.5983,5.5975,5.6015,5.5969,5.5994,5.5995,5.5995,5.6097,5.6118,5.619,5.6062,5.6063,5.6065,0,5.5968,5.5979,5.6031,5.6028,5.6036,5.6059,5.607,5.6086,5.6088,5.6082,5.6089,5.6068,5.6096,5.6058,5.6097,5.6066,5.6075,5.6073,5.6076,5.6077,5.6034,5.6102,5.6213,5.6224,5.608,5.6078,5.6077,0,5.6042,5.6069,5.6104,5.6108,5.6105,5.6123,5.6122,5.6123,5.6133,5.6143,5.6149,5.6162,5.6169,5.618,5.6164,5.6137,5.6206,5.6165,5.6202,5.6202,5.6218,5.6217,5.6332,5.6223,5.6223,5.6222,5.6222,0,5.6125,5.6158,5.6137,5.6159,5.6196,5.6175,5.6212,5.6208,5.621,5.6231,5.6203,5.6223,5.62,5.6218,5.6205,5.6241,5.6244,5.624,5.6236,5.6243,5.6243,5.6248,5.6243,5.6225,5.6225,5.6224,5.6224,0,5.6213,5.62,5.6237,5.6233,5.6232,5.626,5.6257,5.6277,5.6268,5.6295,5.63,5.6287,5.6308,5.6293,5.6312,5.6304,5.6351,5.6339,5.635,5.6347,5.6385,5.6382,5.6508,5.6524,5.6404,5.6405,5.6406,0,5.6267,5.6292,5.6292,5.6304,5.6306,5.6326,5.6337,5.6317,5.6329,5.6336,5.6355,5.6373,5.6387,5.6421,5.6413,5.6428,5.6418,5.6461,5.642,5.6426,5.642,5.6419,5.6422,5.647,5.6471,5.6472,5.6473,0,5.6365,5.6358,5.6374,5.6389,5.6402,5.6412,5.642,5.6432,5.6413,5.6427,5.6448,5.6459,5.648,5.6499,5.6512,5.6512,5.649,5.6486,5.6496,5.6503,5.6509,5.6507,5.6374,5.6483,5.6482,5.6481,5.6481,5.6481,5.6438,5.646,5.6464,5.6483,5.6488,5.6497,5.6516,5.6511,5.6528,5.6544,5.6532,5.6557,5.6561,5.6576,5.6579,5.6599,5.6581,5.6595,5.6598,5.6602,5.6608,5.6505,5.6601,5.6601,5.6601,5.66,5.66,0,5.6536,5.6537,5.6555,5.6568,5.6584,5.6563,5.6571,5.6586,5.6609,5.6614,5.6629,5.6654,5.6672,5.6667,5.6684,5.6701,5.6691,5.6706,5.6705,5.6705,5.6622,5.6613,5.6713,5.6713,5.6713,5.6713,5.6713,5.6713,5.6588,5.6625,5.6619,5.6658,5.6658,5.6684,5.6691,5.6699,5.6704,5.6733,5.6749,5.6745,5.6747,5.6764,5.678,5.6778,5.6786,5.6805,5.6799,5.6722,5.6711,5.67,5.6691,5.6806,5.6807,5.6881,5.6881,5.6882]}]]